Location: Bethany Fellowship Church
(32.6216°N, 97.3708°W)
Time: 06:17:12
(UTC+00:00)

OAO 3 Copernicus - Pass Details

Date: 11 December 2025
Orbit: 689 x 698 km, 35.0° (Epoch: 20 January)

Event Time Altitude Azimuth Distance (km) Brightness Sun altitude
Exits shadow 12:24:36 16° 280° (W) 1,768 5.7 -11.8°
Maximum altitude 12:28:35 66° 0° (N) 753 4.4 -11.0°
Drops below altitude 10° 12:33:33 10° 83° (E) 2,133 7.9 -10.1°
Sets 12:35:58 0° 86° (E) 3,048 8.9 -9.6°
